When you browse on this site, cookies collect data to enhance your experience and personalize the content and advertising you see.
Visit our Privacy Policy to learn more. By continuing to use the site, you agree to this use of cookies and data.
  • In Romania
  • List of Countries
  • For 7 days
  • Water Temperature
  • Weather Map
  • Weather Widgets
  • user-avatar
    Login

    Hourly Weather Ischgl

    Today, 18 October, Friday

    Time Temperature Precipitation Wind Pressure Humidity
    00:00 +1°C° 0 mm 1 mps 573 mmHg 90%
    01:00 +1°C° 0 mm 1 mps 573 mmHg 88%
    02:00 0°C° 0 mm 1 mps 572 mmHg 88%
    03:00 0°C° 0 mm 1 mps 572 mmHg 87%
    04:00 0°C° 0 mm 1 mps 571 mmHg 87%
    05:00 0°C° 0 mm 1 mps 571 mmHg 86%
    06:00 0°C° 0 mm 1 mps 571 mmHg 85%
    07:00 0°C° 0 mm 1 mps 571 mmHg 84%
    08:00 +2°C° 0 mm 1 mps 572 mmHg 79%
    09:00 +2°C° 0 mm 2 mps 573 mmHg 75%
    10:00 +4°C° 0 mm 2 mps 574 mmHg 71%
    11:00 +5°C° 0 mm 2 mps 574 mmHg 69%
    12:00 +5°C° 0 mm 2 mps 574 mmHg 68%
    13:00 +6°C° 0 mm 2 mps 574 mmHg 66%
    14:00 +6°C° 0 mm 2 mps 574 mmHg 69%
    15:00 +6°C° 0 mm 2 mps 574 mmHg 71%
    16:00 +5°C° 0 mm 2 mps 574 mmHg 74%
    17:00 +5°C° 0 mm 1 mps 573 mmHg 80%
    18:00 +3°C° 0 mm 1 mps 573 mmHg 86%
    19:00 +2°C° 0 mm 1 mps 572 mmHg 92%
    20:00 +1°C° 0 mm 2 mps 572 mmHg 92%
    21:00 +1°C° 0 mm 2 mps 572 mmHg 92%
    22:00 -1°C° 0 mm 2 mps 572 mmHg 92%
    23:00 -1°C° 0 mm 2 mps 572 mmHg 92%

    Tomorrow, 19 October, Saturday

    Time Temperature Precipitation Wind Pressure Humidity
    00:00 -1°C° 0 mm 2 mps 571 mmHg 92%
    01:00 -1°C° 0 mm 2 mps 571 mmHg 92%
    02:00 -1°C° 0.1 mm 2 mps 571 mmHg 93%
    03:00 -1°C° 0.1 mm 2 mps 571 mmHg 93%
    04:00 -1°C° 0.1 mm 3 mps 570 mmHg 94%
    05:00 0°C° 0.1 mm 3 mps 570 mmHg 94%
    06:00 +1°C° 0.1 mm 2 mps 570 mmHg 94%
    07:00 +1°C° 0.1 mm 2 mps 570 mmHg 94%
    08:00 +1°C° 0.1 mm 3 mps 571 mmHg 92%
    09:00 +2°C° 0.1 mm 3 mps 571 mmHg 89%
    10:00 +3°C° 0.1 mm 3 mps 572 mmHg 87%
    11:00 +3°C° 0 mm 3 mps 572 mmHg 84%
    12:00 +4°C° 0 mm 3 mps 573 mmHg 82%
    13:00 +4°C° 0 mm 3 mps 573 mmHg 80%
    14:00 +4°C° 0 mm 3 mps 573 mmHg 81%
    15:00 +4°C° 0 mm 3 mps 572 mmHg 83%
    16:00 +4°C° 0 mm 3 mps 572 mmHg 84%
    17:00 +3°C° 0 mm 3 mps 572 mmHg 87%
    18:00 +2°C° 0 mm 3 mps 572 mmHg 90%
    19:00 +1°C° 0 mm 3 mps 571 mmHg 93%
    20:00 +1°C° 0 mm 3 mps 572 mmHg 93%
    21:00 +1°C° 0 mm 3 mps 572 mmHg 93%
    22:00 +1°C° 0 mm 3 mps 572 mmHg 93%
    23:00 +1°C° 0.1 mm 3 mps 572 mmHg 93%

    Day after tomorrow, 20 October, Sunday

    Time Temperature Precipitation Wind Pressure Humidity
    00:00 +1°C° 0.1 mm 3 mps 572 mmHg 93%
    01:00 +1°C° 0.1 mm 3 mps 572 mmHg 93%
    02:00 +1°C° 0.1 mm 3 mps 572 mmHg 93%
    03:00 0°C° 0.1 mm 4 mps 572 mmHg 93%
    04:00 0°C° 0.1 mm 4 mps 571 mmHg 93%
    05:00 0°C° 0 mm 4 mps 571 mmHg 93%
    06:00 0°C° 0 mm 4 mps 571 mmHg 93%
    07:00 0°C° 0 mm 4 mps 571 mmHg 93%
    08:00 +3°C° 0 mm 4 mps 572 mmHg 88%
    09:00 +4°C° 0 mm 4 mps 573 mmHg 83%
    10:00 +5°C° 0 mm 4 mps 574 mmHg 78%
    11:00 +6°C° 0 mm 4 mps 574 mmHg 74%
    12:00 +6°C° 0 mm 4 mps 574 mmHg 71%
    13:00 +7°C° 0 mm 4 mps 574 mmHg 68%
    14:00 +6°C° 0 mm 4 mps 573 mmHg 72%
    15:00 +6°C° 0 mm 4 mps 573 mmHg 76%
    16:00 +5°C° 0 mm 4 mps 573 mmHg 80%
    17:00 +4°C° 0 mm 4 mps 573 mmHg 84%
    18:00 +4°C° 0 mm 4 mps 572 mmHg 87%
    19:00 +3°C° 0 mm 4 mps 572 mmHg 91%
    20:00 +3°C° 0.1 mm 4 mps 572 mmHg 91%
    21:00 +3°C° 0.1 mm 4 mps 573 mmHg 91%
    22:00 +1°C° 0.1 mm 4 mps 573 mmHg 91%
    23:00 +1°C° 0.2 mm 4 mps 573 mmHg 91%

    21 October, Monday

    Time Temperature Precipitation Wind Pressure Humidity
    00:00 +1°C° 0.2 mm 4 mps 573 mmHg 92%
    01:00 +2°C° 0.2 mm 3 mps 573 mmHg 92%
    02:00 +2°C° 0.1 mm 3 mps 573 mmHg 92%
    03:00 +2°C° 0.1 mm 3 mps 574 mmHg 93%
    04:00 +2°C° 0.1 mm 3 mps 574 mmHg 93%
    05:00 +2°C° 0.1 mm 3 mps 574 mmHg 93%
    06:00 +2°C° 0.1 mm 3 mps 574 mmHg 93%
    07:00 +2°C° 0.1 mm 3 mps 574 mmHg 94%
    08:00 +3°C° 0.1 mm 3 mps 575 mmHg 91%
    09:00 +4°C° 0.1 mm 2 mps 576 mmHg 88%
    10:00 +5°C° 0.1 mm 2 mps 577 mmHg 85%
    11:00 +5°C° 0.1 mm 2 mps 577 mmHg 86%
    12:00 +5°C° 0.1 mm 2 mps 578 mmHg 87%
    13:00 +5°C° 0.1 mm 2 mps 578 mmHg 88%
    14:00 +5°C° 0.3 mm 2 mps 577 mmHg 90%
    15:00 +6°C° 0.3 mm 1 mps 577 mmHg 92%
    16:00 +5°C° 0.3 mm 1 mps 577 mmHg 95%
    17:00 +5°C° 0.4 mm 1 mps 577 mmHg 95%
    18:00 +5°C° 0.4 mm 1 mps 577 mmHg 96%
    19:00 +5°C° 0.4 mm 1 mps 578 mmHg 96%
    20:00 +4°C° 0.1 mm 1 mps 578 mmHg 96%
    21:00 +4°C° 0.1 mm 1 mps 578 mmHg 96%
    22:00 +4°C° 0.1 mm 1 mps 578 mmHg 96%
    23:00 +4°C° 0.1 mm 1 mps 578 mmHg 95%

    22 October, Tuesday

    Time Temperature Precipitation Wind Pressure Humidity
    00:00 +4°C° 0.1 mm 1 mps 578 mmHg 95%
    01:00 +4°C° 0.1 mm 2 mps 578 mmHg 94%
    02:00 +3°C° 0 mm 2 mps 578 mmHg 94%
    03:00 +3°C° 0 mm 2 mps 578 mmHg 94%
    04:00 +3°C° 0 mm 2 mps 578 mmHg 94%
    05:00 +3°C° 0 mm 2 mps 578 mmHg 93%
    06:00 +3°C° 0 mm 2 mps 578 mmHg 93%
    07:00 +3°C° 0 mm 2 mps 578 mmHg 93%
    08:00 +4°C° 0 mm 2 mps 579 mmHg 88%
    09:00 +6°C° 0 mm 2 mps 579 mmHg 84%
    10:00 +7°C° 0 mm 2 mps 580 mmHg 79%
    11:00 +8°C° 0 mm 2 mps 581 mmHg 73%
    12:00 +9°C° 0 mm 2 mps 581 mmHg 67%
    13:00 +10°C° 0 mm 2 mps 581 mmHg 61%
    14:00 +10°C° 0 mm 2 mps 581 mmHg 63%
    15:00 +10°C° 0 mm 2 mps 580 mmHg 65%
    16:00 +9°C° 0 mm 2 mps 580 mmHg 68%
    17:00 +8°C° 0 mm 2 mps 579 mmHg 73%
    18:00 +6°C° 0 mm 2 mps 578 mmHg 78%
    19:00 +5°C° 0 mm 2 mps 578 mmHg 84%
    20:00 +3°C° 0 mm 3 mps 577 mmHg 85%
    21:00 +3°C° 0 mm 3 mps 577 mmHg 86%
    22:00 +3°C° 0 mm 3 mps 577 mmHg 88%
    23:00 +2°C° 0 mm 3 mps 577 mmHg 87%

    23 October, Wednesday

    Time Temperature Precipitation Wind Pressure Humidity
    00:00 +2°C° 0 mm 3 mps 577 mmHg 86%
    01:00 +2°C° 0 mm 3 mps 576 mmHg 85%
    02:00 +2°C° 0 mm 3 mps 576 mmHg 83%
    03:00 +1°C° 0 mm 3 mps 576 mmHg 81%
    04:00 +1°C° 0 mm 3 mps 575 mmHg 79%
    05:00 +1°C° 0 mm 3 mps 575 mmHg 76%
    06:00 +1°C° 0 mm 3 mps 575 mmHg 74%
    07:00 +1°C° 0 mm 3 mps 575 mmHg 71%
    08:00 +3°C° 0 mm 3 mps 576 mmHg 65%
    09:00 +5°C° 0 mm 3 mps 577 mmHg 58%
    10:00 +8°C° 0 mm 3 mps 578 mmHg 51%
    11:00 +9°C° 0 mm 3 mps 578 mmHg 47%
    12:00 +10°C° 0 mm 3 mps 578 mmHg 43%
    13:00 +11°C° 0 mm 3 mps 579 mmHg 38%
    14:00 +11°C° 0 mm 3 mps 578 mmHg 43%
    15:00 +10°C° 0 mm 2 mps 578 mmHg 48%
    16:00 +10°C° 0 mm 2 mps 577 mmHg 53%
    17:00 +8°C° 0 mm 2 mps 576 mmHg 59%
    18:00 +5°C° 0 mm 3 mps 576 mmHg 65%
    19:00 +3°C° 0 mm 3 mps 575 mmHg 71%
    20:00 +3°C° 0 mm 3 mps 575 mmHg 72%
    21:00 +3°C° 0 mm 3 mps 575 mmHg 73%
    22:00 +2°C° 0 mm 3 mps 575 mmHg 74%
    23:00 +2°C° 0 mm 3 mps 575 mmHg 72%
    Show more